This is the latest recevied weather packets stored in our database for station/object IR3ZXT. If no packets are shown the sender has not sent any weather packets the latest 10 day(s).
| Time | Temp. | Humidity | Pressure | Rain* | Wind** | Luminosity | Snow |
|---|---|---|---|---|---|---|---|
| 1787819417 | 18.33° C | 65% | 870.1 hPa | 0 mm | - | - | - |
| 1787819117 | 17.78° C | 67% | 870.1 hPa | 0 mm | - | - | - |
| 1787818867 | 17.78° C | 67% | 870 hPa | 0 mm | - | - | - |
| 1787818817 | 17.78° C | 67% | 870 hPa | 0 mm | - | - | - |
| 1787818517 | 17.22° C | 69% | 870.2 hPa | 0 mm | - | - | - |
| 1787818217 | 17.22° C | 69% | 870.1 hPa | 0 mm | - | - | - |
| 1787817917 | 16.67° C | 69% | 870 hPa | 0 mm | - | - | - |
| 1787817648 | 16.67° C | 70% | 870.1 hPa | 0 mm | - | - | - |
| 1787817617 | 16.67° C | 70% | 870.1 hPa | 0 mm | - | - | - |
| 1787817373 | 16.67° C | 70% | 870 hPa | 0 mm | - | - | - |
| 1787817323 | 16.67° C | 70% | 870 hPa | 0 mm | - | - | - |
| 1787817017 | 16.67° C | 70% | 870 hPa | 0 mm | - | - | - |
| 1787816717 | 16.67° C | 71% | 869.9 hPa | 0 mm | - | - | - |
| 1787816417 | 16.11° C | 71% | 869.9 hPa | 0 mm | - | - | - |
| 1787816117 | 16.67° C | 71% | 869.9 hPa | 0 mm | - | - | - |
| 1787815817 | 16.67° C | 71% | 869.9 hPa | 0 mm | - | - | - |
| 1787815566 | 16.67° C | 72% | 869.9 hPa | 0 mm | - | - | - |
| 1787815517 | 16.67° C | 72% | 869.9 hPa | 0 mm | - | - | - |
| 1787815217 | 16.11° C | 72% | 870 hPa | 0 mm | - | - | - |
| 1787814917 | 16.11° C | 74% | 869.8 hPa | 0 mm | - | - | - |
| 1787814654 | 15.56° C | 73% | 869.8 hPa | 0 mm | - | - | - |
| 1787814617 | 15.56° C | 73% | 869.8 hPa | 0 mm | - | - | - |
| 1787814317 | 15.56° C | 75% | 869.7 hPa | 0 mm | - | - | - |
| 1787814017 | 15° C | 76% | 869.8 hPa | 0 mm | - | - | - |
| 1787813717 | 15° C | 76% | 869.8 hPa | 0 mm | - | - | - |
* Rain latest hour (hover to see other rain measurements)
** Current wind speed in m/s (hover to see current wind gust speed)